Regional Weather Roundup
Issued by NWS

Home | Current Version | Previous Version | Graphics & Text | Print | Product List | Glossary On
Versions: 1 2 3 4 5 6 7 8 9 10 11 12 13 14 15 16 17 18 19 20 21 22 23 24 25 26 27 28 29 30 31 32 33 34 35 36 37 38 39 40 41 42 43 44 45 46 47 48 49 50
000
ASUS43 KDTX 220710
RWRMI
MICHIGAN HOURLY REGIONAL WEATHER ROUNDUP
NATIONAL WEATHER SERVICE DETROIT/PONTIAC MI
200 AM EST MON DEC 22 2014

NOTE: "FAIR" INDICATES FEW OR NO CLOUDS BELOW 12,000 FEET WITH NO
SIGNIFICANT WEATHER AND/OR OBSTRUCTION TO VISIBILITY.

MIZ047>049-052>055-059>063-066>070-074>076-081>083-220800-
SOUTHEAST LOWER MICHIGAN

CITY           SKY/WX    TMP DP  RH WIND       PRES   REMARKS
ADRIAN         PTCLDY    25  22  88 E5        30.14F FOG
ALMA           CLEAR     28  26  91 SE5       30.11S FOG
ANN ARBOR      MOCLDY    26  23  88 E5        30.14F FOG
BAD AXE        CLOUDY    30  26  83 S7        30.16F
DETROIT CITY   PTCLDY    29  22  75 SE3       30.17F
DETROIT        MOCLDY    27  23  85 E5        30.17F FOG
FLINT          MOCLDY    30  23  75 SE9       30.14F HAZE
GROSSE ILE     PTCLDY    28  25  86 E3        30.15F
HILLSDALE      PTCLDY    27  24  89 SE9       30.08F FOG
HOWELL         PTCLDY    27  25  93 SE7       30.12F FOG

CITY           SKY/WX    TMP DP  RH WIND       PRES   REMARKS
JACKSON        PTCLDY    27  23  85 SE8       30.10F FOG
LAMBERTVILLE   MOCLDY    28  23  80 E3        30.15F
LANSING        CLEAR     28  24  85 SE12      30.11F FOG
LAPEER         NOT AVBL
MASON          PTCLDY    27  24  87 SE10      30.10F FOG
MONROE         MOCLDY    30  25  80 SE7       30.14F
MT. CLEMENS    CLOUDY    31  26  82 SE9       30.15F
PONTIAC        PTCLDY    26  23  88 SE5       30.14F FOG
PORT HOPE        N/A     31  24  75 S7        30.16S
PORT HURON     CLOUDY    25  23  93 CALM      30.18F FOG
TRI CITIES     PTCLDY    31  23  72 SE10      30.13F
YPSILANTI      PTCLDY    29  22  75 E3        30.16F HAZE
$$
MIZ043>046-050>051-056>058-064>065-071>073-077>080-220800-
SOUTHWEST LOWER MICHIGAN

CITY           SKY/WX    TMP DP  RH WIND       PRES   REMARKS
BATTLE CREEK   MOCLDY    29  23  78 SE8       30.08F
BENTON HARBOR  PTCLDY    29  25  85 SE9       30.05F
BIG RAPIDS     PTCLDY    29  28  96 S6        30.06F FOG
COLDWATER      PTCLDY    28  24  84 MISG      30.08F
HOLLAND        MOCLDY    31  24  75 SE7       30.06F
GRAND RAPIDS   PTCLDY    29  24  82 SE12      30.08F
KALAMAZOO      MOCLDY    29  23  78 SE3       30.08F
MARSHALL       PTCLDY    26  23  87 SE5       30.08F
MUSKEGON       CLOUDY    32  25  75 SE12      30.06F
$$
MIZ016>042-220800-
NORTHERN LOWER MICHIGAN

CITY           SKY/WX    TMP DP  RH WIND       PRES   REMARKS
ALPENA         CLOUDY    31  25  78 S12       30.14S
BEAVER ISLAND  CLOUDY    33  30  90 SE7       30.04F FOG
BELLAIRE       MOCLDY    32  27  81 SE7       30.07F
CADILLAC       MOCLDY    28  25  89 SE8       30.04S FOG
CHARLEVOIX     MOCLDY    32  28  83 SE12      30.08F
FRANKFORT      CLOUDY    32  28  83 S6        30.04F
GAYLORD        CLOUDY    28  24  85 S13       30.05F
GRAYLING       MOCLDY    28  25  86 SE7       30.08F
HARBOR SPRINGS CLOUDY    32  26  80 SE5       30.07S
HOUGHTON LAKE  PTCLDY    24  21  88 E5        30.08F
MANISTEE       MOCLDY    30  25  80 SE8       30.05S
OSCODA         CLOUDY    31  26  81 S7        30.15F
PELLSTON       CLOUDY    32  26  78 SE9       30.08S
TRAVERSE CITY  CLOUDY    32  27  81 SE6       30.04F
$$
MIZ007>008-015-220800-
EASTERN UPPER MICHIGAN

CITY           SKY/WX    TMP DP  RH WIND       PRES   REMARKS
KINROSS        CLOUDY    32  30  93 S8        30.07S
MACKINAC ISLAN CLOUDY    32  27  82 S12G21    30.07S
NEWBERRY       CLOUDY    32  30  93 S13G20    30.01F
S. S. MARIE    CLOUDY    32  28  85 SE9       30.06F
$$
MIZ004>006-011>014-085-220800-
CENTRAL UPPER MICHIGAN

CITY           SKY/WX    TMP DP  RH WIND       PRES   REMARKS
MANISTIQUE     CLOUDY    34  32  94 S13G23    30.00F
ESCANABA       CLOUDY    36  32  87 S13G18    29.96S
MENOMINEE      CLOUDY    36  30  80 S13G21    29.95F
SAWYER-GWINN   LGT SNOW  33  32  95 S20G25    29.90S
$$
MIZ001>003-009>011-084-220800-
WESTERN UPPER MICHIGAN

CITY           SKY/WX    TMP DP  RH WIND       PRES   REMARKS
IRON MOUNTAIN  CLOUDY    33  31  92 S10       29.89F FOG
HOUGHTON       CLOUDY    32  31  96 SE7       29.83S FOG
COPPER HARBOR    N/A     35  32  88 SW12G18   29.86S
IRONWOOD       CLOUDY    36  34  93 S8G18     29.75S
$$

ABBREVIATIONS USED IN REMARKS
   TC - TEMPERATURE IN CELSIUS
  WCI - WIND CHILL INDEX
   HX - HEAT INDEX
  VSB - VISIBILITY




USA.gov is the U.S. government's official web portal to all federal, state and local government web resources and services.